Back to Top

Language: 

My Weather Underground Personal Weather Station Historical Data with Graphs...

Delerius Weather Station Historical Data
Daily Summary for May 8, 2017 Units:  English    Metric   Both
« Previous Day
Next Day »
Daily Weekly Monthly Yearly Custom
  High: Low: Average:
Temperature: 52.0 °F 44.8 °F 47.6 °F
Dew Point: 41.0 °F 36.7 °F 38.8 °F
Humidity: 79 % 64 % 72 %
Wind Speed: 12.0 mph 2.0 mph 7.2 mph
Wind Gust: 26.0 mph - -
Wind:- - NE
Pressure: 30.43 in 30.31 in -
Precipitation: 0.00 in    
Historical Graphs
 
 
Tabular Data for May 8, 2017
Time Temperature Dew Point Pressure Wind Wind Speed Wind Gust Humidity Rainfall Rate (Hourly) solar Conditions
00:02 45.3 °F 39.2 °F 30.31 in North 5.0 mph 11.0 mph 79 % 0.00 in 0 W/m2
00:07 45.3 °F 38.9 °F 30.31 in North 6.0 mph 14.0 mph 78 % 0.00 in 0 W/m2
00:12 45.1 °F 38.7 °F 30.31 in North 7.0 mph 16.0 mph 78 % 0.00 in 0 W/m2
00:18 45.3 °F 38.9 °F 30.31 in North 6.0 mph 16.0 mph 78 % 0.00 in 0 W/m2
00:23 45.3 °F 39.2 °F 30.31 in North 4.0 mph 10.0 mph 79 % 0.00 in 0 W/m2
00:28 45.3 °F 38.9 °F 30.32 in North 5.0 mph 12.0 mph 78 % 0.00 in 0 W/m2
00:33 45.3 °F 38.9 °F 30.32 in North 6.0 mph 12.0 mph 78 % 0.00 in 0 W/m2
00:38 45.3 °F 38.9 °F 30.32 in North 6.0 mph 12.0 mph 78 % 0.00 in 0 W/m2
00:43 45.3 °F 38.9 °F 30.32 in North 5.0 mph 14.0 mph 78 % 0.00 in 0 W/m2
00:48 45.3 °F 38.9 °F 30.32 in North 5.0 mph 18.0 mph 78 % 0.00 in 0 W/m2
00:53 45.1 °F 38.7 °F 30.32 in North 5.0 mph 18.0 mph 78 % 0.00 in 0 W/m2
00:58 45.3 °F 38.9 °F 30.32 in North 5.0 mph 13.0 mph 78 % 0.00 in 0 W/m2
01:03 45.3 °F 38.9 °F 30.32 in North 6.0 mph 13.0 mph 78 % 0.00 in 0 W/m2
01:08 45.1 °F 38.7 °F 30.31 in North 6.0 mph 12.0 mph 78 % 0.00 in 0 W/m2
01:13 45.1 °F 38.7 °F 30.32 in North 8.0 mph 16.0 mph 78 % 0.00 in 0 W/m2
01:18 45.1 °F 38.7 °F 30.32 in North 10.0 mph 16.0 mph 78 % 0.00 in 0 W/m2
01:23 45.1 °F 38.7 °F 30.32 in North 9.0 mph 19.0 mph 78 % 0.00 in 0 W/m2
01:28 45.1 °F 38.7 °F 30.32 in North 9.0 mph 19.0 mph 78 % 0.00 in 0 W/m2
01:33 45.1 °F 38.7 °F 30.32 in NNE 7.0 mph 16.0 mph 78 % 0.00 in 0 W/m2
01:38 45.1 °F 38.7 °F 30.31 in NNE 6.0 mph 14.0 mph 78 % 0.00 in 0 W/m2
01:43 45.1 °F 38.7 °F 30.31 in NNE 7.0 mph 12.0 mph 78 % 0.00 in 0 W/m2
01:48 45.1 °F 38.7 °F 30.31 in North 6.0 mph 13.0 mph 78 % 0.00 in 0 W/m2
01:53 45.1 °F 39.0 °F 30.31 in North 7.0 mph 18.0 mph 79 % 0.00 in 0 W/m2
01:58 45.1 °F 38.7 °F 30.32 in North 8.0 mph 19.0 mph 78 % 0.00 in 0 W/m2
02:03 45.3 °F 38.9 °F 30.31 in North 8.0 mph 19.0 mph 78 % 0.00 in 0 W/m2
02:08 45.3 °F 39.2 °F 30.31 in North 6.0 mph 15.0 mph 79 % 0.00 in 0 W/m2
02:14 45.3 °F 39.2 °F 30.31 in North 7.0 mph 16.0 mph 79 % 0.00 in 0 W/m2
02:19 45.3 °F 39.2 °F 30.31 in North 7.0 mph 16.0 mph 79 % 0.00 in 0 W/m2
02:24 45.3 °F 38.9 °F 30.31 in North 9.0 mph 20.0 mph 78 % 0.00 in 0 W/m2
02:29 45.3 °F 38.9 °F 30.32 in North 10.0 mph 20.0 mph 78 % 0.00 in 0 W/m2
02:34 45.5 °F 39.0 °F 30.32 in North 9.0 mph 18.0 mph 78 % 0.00 in 0 W/m2
02:39 45.5 °F 39.0 °F 30.32 in North 9.0 mph 18.0 mph 78 % 0.00 in 0 W/m2
02:44 45.5 °F 39.0 °F 30.32 in North 8.0 mph 16.0 mph 78 % 0.00 in 0 W/m2
02:49 45.5 °F 39.0 °F 30.31 in North 7.0 mph 13.0 mph 78 % 0.00 in 0 W/m2
02:54 45.5 °F 39.0 °F 30.32 in North 7.0 mph 16.0 mph 78 % 0.00 in 0 W/m2
02:59 45.5 °F 39.0 °F 30.32 in North 8.0 mph 16.0 mph 78 % 0.00 in 0 W/m2
03:04 45.5 °F 39.0 °F 30.32 in North 8.0 mph 15.0 mph 78 % 0.00 in 0 W/m2
03:09 45.5 °F 39.0 °F 30.32 in North 8.0 mph 15.0 mph 78 % 0.00 in 0 W/m2
03:14 45.5 °F 39.0 °F 30.32 in North 8.0 mph 15.0 mph 78 % 0.00 in 0 W/m2
03:19 45.5 °F 39.0 °F 30.32 in North 7.0 mph 14.0 mph 78 % 0.00 in 0 W/m2
03:24 45.5 °F 39.0 °F 30.33 in NNE 6.0 mph 14.0 mph 78 % 0.00 in 0 W/m2
03:29 45.7 °F 39.2 °F 30.32 in NNE 6.0 mph 13.0 mph 78 % 0.00 in 0 W/m2
03:34 45.7 °F 39.2 °F 30.32 in North 7.0 mph 18.0 mph 78 % 0.00 in 0 W/m2
03:39 45.7 °F 39.2 °F 30.32 in North 7.0 mph 18.0 mph 78 % 0.00 in 0 W/m2
03:44 45.7 °F 39.2 °F 30.32 in NNE 9.0 mph 20.0 mph 78 % 0.00 in 0 W/m2
03:49 45.5 °F 39.0 °F 30.33 in NNE 10.0 mph 20.0 mph 78 % 0.00 in 0 W/m2
03:54 45.5 °F 39.0 °F 30.33 in NNE 9.0 mph 18.0 mph 78 % 0.00 in 0 W/m2
03:59 45.5 °F 39.0 °F 30.33 in NNE 9.0 mph 18.0 mph 78 % 0.00 in 0 W/m2
04:04 45.3 °F 38.9 °F 30.33 in NNE 10.0 mph 18.0 mph 78 % 0.00 in 0 W/m2
04:09 45.3 °F 38.5 °F 30.33 in North 10.0 mph 18.0 mph 77 % 0.00 in 0 W/m2
04:14 45.3 °F 38.5 °F 30.33 in NNE 9.0 mph 21.0 mph 77 % 0.00 in 0 W/m2
04:19 45.3 °F 38.5 °F 30.33 in NNE 11.0 mph 23.0 mph 77 % 0.00 in 0 W/m2
04:24 45.3 °F 38.5 °F 30.33 in NNE 11.0 mph 23.0 mph 77 % 0.00 in 0 W/m2
04:29 45.3 °F 38.5 °F 30.33 in NNE 10.0 mph 20.0 mph 77 % 0.00 in 0 W/m2
04:34 45.3 °F 38.5 °F 30.33 in NNE 9.0 mph 20.0 mph 77 % 0.00 in 0 W/m2
04:44 45.1 °F 38.0 °F 30.33 in NNE 10.0 mph 24.0 mph 76 % 0.00 in 0 W/m2
04:46 45.1 °F 37.7 °F 30.33 in NNE 10.0 mph 24.0 mph 75 % 0.00 in 0 W/m2
04:51 45.1 °F 37.7 °F 30.33 in North 10.0 mph 24.0 mph 75 % 0.00 in 0 W/m2
04:56 45.1 °F 37.3 °F 30.33 in North 10.0 mph 19.0 mph 74 % 0.00 in 0 W/m2
05:01 45.1 °F 37.7 °F 30.33 in North 10.0 mph 19.0 mph 75 % 0.00 in 0 W/m2
05:06 45.1 °F 37.3 °F 30.33 in North 10.0 mph 20.0 mph 74 % 0.00 in 0 W/m2
05:11 45.1 °F 37.3 °F 30.33 in North 10.0 mph 20.0 mph 74 % 0.00 in 0 W/m2
05:16 45.1 °F 37.3 °F 30.33 in North 11.0 mph 26.0 mph 74 % 0.00 in 0 W/m2
05:21 45.1 °F 37.3 °F 30.33 in North 10.0 mph 26.0 mph 74 % 0.00 in 0 W/m2
05:26 45.1 °F 37.3 °F 30.33 in North 9.0 mph 19.0 mph 74 % 0.00 in 5 W/m2
05:31 45.1 °F 37.3 °F 30.33 in North 10.0 mph 19.0 mph 74 % 0.00 in 5 W/m2
05:36 45.1 °F 37.3 °F 30.33 in North 11.0 mph 22.0 mph 74 % 0.00 in 7 W/m2
05:41 45.1 °F 37.3 °F 30.33 in North 12.0 mph 22.0 mph 74 % 0.00 in 9 W/m2
05:46 45.1 °F 37.7 °F 30.34 in North 11.0 mph 21.0 mph 75 % 0.00 in 9 W/m2
05:51 45.1 °F 37.3 °F 30.34 in NNE 10.0 mph 21.0 mph 74 % 0.00 in 11 W/m2
05:56 45.1 °F 37.7 °F 30.34 in North 10.0 mph 20.0 mph 75 % 0.00 in 11 W/m2
06:01 45.1 °F 37.7 °F 30.34 in North 9.0 mph 20.0 mph 75 % 0.00 in 11 W/m2
06:06 45.1 °F 37.7 °F 30.34 in North 9.0 mph 19.0 mph 75 % 0.00 in 12 W/m2
06:11 45.1 °F 37.7 °F 30.34 in North 9.0 mph 16.0 mph 75 % 0.00 in 16 W/m2
06:16 45.3 °F 37.9 °F 30.34 in North 8.0 mph 16.0 mph 75 % 0.00 in 19 W/m2
06:21 45.3 °F 37.9 °F 30.34 in North 7.0 mph 16.0 mph 75 % 0.00 in 25 W/m2
06:26 45.3 °F 37.9 °F 30.34 in North 7.0 mph 13.0 mph 75 % 0.00 in 26 W/m2
06:31 45.3 °F 38.2 °F 30.34 in NNE 9.0 mph 15.0 mph 76 % 0.00 in 25 W/m2
06:36 45.3 °F 37.9 °F 30.34 in North 10.0 mph 20.0 mph 75 % 0.00 in 39 W/m2
06:41 45.3 °F 37.9 °F 30.34 in North 9.0 mph 21.0 mph 75 % 0.00 in 47 W/m2
06:46 45.5 °F 37.7 °F 30.34 in North 11.0 mph 21.0 mph 74 % 0.00 in 51 W/m2
06:51 45.5 °F 37.7 °F 30.34 in North 11.0 mph 21.0 mph 74 % 0.00 in 46 W/m2
06:56 45.7 °F 37.9 °F 30.34 in NNE 9.0 mph 16.0 mph 74 % 0.00 in 54 W/m2
07:01 45.7 °F 37.9 °F 30.34 in NNE 9.0 mph 18.0 mph 74 % 0.00 in 62 W/m2
07:06 45.7 °F 37.9 °F 30.34 in NNE 8.0 mph 18.0 mph 74 % 0.00 in 69 W/m2
07:11 45.7 °F 38.2 °F 30.35 in North 6.0 mph 16.0 mph 75 % 0.00 in 67 W/m2
07:17 45.9 °F 38.0 °F 30.35 in North 7.0 mph 16.0 mph 74 % 0.00 in 69 W/m2
07:22 45.9 °F 38.0 °F 30.35 in North 8.0 mph 16.0 mph 74 % 0.00 in 70 W/m2
07:27 45.9 °F 38.4 °F 30.35 in North 6.0 mph 16.0 mph 75 % 0.00 in 76 W/m2
07:32 45.9 °F 38.4 °F 30.35 in NNE 5.0 mph 11.0 mph 75 % 0.00 in 83 W/m2
07:37 46.0 °F 38.2 °F 30.35 in North 6.0 mph 13.0 mph 74 % 0.00 in 77 W/m2
07:42 46.0 °F 38.2 °F 30.36 in North 7.0 mph 13.0 mph 74 % 0.00 in 83 W/m2
07:47 46.0 °F 38.2 °F 30.36 in North 6.0 mph 13.0 mph 74 % 0.00 in 93 W/m2
07:52 46.0 °F 38.2 °F 30.36 in North 6.0 mph 14.0 mph 74 % 0.00 in 90 W/m2
07:57 46.2 °F 38.4 °F 30.36 in North 7.0 mph 14.0 mph 74 % 0.00 in 86 W/m2
08:02 46.2 °F 38.4 °F 30.36 in North 8.0 mph 19.0 mph 74 % 0.00 in 86 W/m2
08:07 46.2 °F 38.4 °F 30.36 in North 8.0 mph 19.0 mph 74 % 0.00 in 95 W/m2
08:13 46.2 °F 38.0 °F 30.37 in North 9.0 mph 23.0 mph 73 % 0.00 in 116 W/m2
08:18 46.2 °F 38.0 °F 30.37 in North 10.0 mph 23.0 mph 73 % 0.00 in 113 W/m2
08:23 46.4 °F 38.2 °F 30.37 in North 8.0 mph 15.0 mph 73 % 0.00 in 111 W/m2
08:28 46.6 °F 38.7 °F 30.37 in North 8.0 mph 15.0 mph 74 % 0.00 in 128 W/m2
08:33 46.6 °F 38.4 °F 30.37 in North 8.0 mph 18.0 mph 73 % 0.00 in 121 W/m2
08:38 46.6 °F 38.4 °F 30.38 in North 9.0 mph 18.0 mph 73 % 0.00 in 113 W/m2
08:43 46.6 °F 38.4 °F 30.38 in NNE 9.0 mph 16.0 mph 73 % 0.00 in 98 W/m2
08:48 46.6 °F 38.4 °F 30.38 in North 9.0 mph 16.0 mph 73 % 0.00 in 91 W/m2
08:53 46.4 °F 38.6 °F 30.38 in North 8.0 mph 18.0 mph 74 % 0.00 in 95 W/m2
08:58 46.4 °F 38.6 °F 30.38 in NNE 10.0 mph 18.0 mph 74 % 0.00 in 104 W/m2
09:03 46.4 °F 38.6 °F 30.38 in North 10.0 mph 18.0 mph 74 % 0.00 in 118 W/m2
09:08 46.4 °F 38.6 °F 30.38 in NNE 8.0 mph 16.0 mph 74 % 0.00 in 125 W/m2
09:13 46.6 °F 38.7 °F 30.38 in NNE 7.0 mph 14.0 mph 74 % 0.00 in 135 W/m2
09:18 46.8 °F 38.9 °F 30.38 in North 8.0 mph 18.0 mph 74 % 0.00 in 160 W/m2
09:24 46.8 °F 38.6 °F 30.38 in North 9.0 mph 18.0 mph 73 % 0.00 in 135 W/m2
09:29 46.9 °F 38.7 °F 30.38 in North 9.0 mph 18.0 mph 73 % 0.00 in 130 W/m2
09:34 46.9 °F 38.7 °F 30.39 in North 9.0 mph 15.0 mph 73 % 0.00 in 134 W/m2
09:39 46.9 °F 39.1 °F 30.39 in North 8.0 mph 15.0 mph 74 % 0.00 in 174 W/m2
09:44 47.1 °F 38.9 °F 30.39 in North 8.0 mph 20.0 mph 73 % 0.00 in 167 W/m2
09:49 47.1 °F 38.9 °F 30.39 in North 9.0 mph 20.0 mph 73 % 0.00 in 176 W/m2
09:54 47.3 °F 39.1 °F 30.39 in North 9.0 mph 18.0 mph 73 % 0.00 in 206 W/m2
09:59 47.5 °F 38.9 °F 30.39 in North 8.0 mph 18.0 mph 72 % 0.00 in 190 W/m2
10:04 47.5 °F 38.9 °F 30.39 in North 9.0 mph 18.0 mph 72 % 0.00 in 232 W/m2
10:09 47.8 °F 39.2 °F 30.39 in NNE 8.0 mph 18.0 mph 72 % 0.00 in 225 W/m2
10:14 48.0 °F 39.4 °F 30.39 in NNE 6.0 mph 14.0 mph 72 % 0.00 in 236 W/m2
10:19 48.2 °F 39.2 °F 30.39 in NNE 8.0 mph 19.0 mph 71 % 0.00 in 193 W/m2
10:24 48.0 °F 39.1 °F 30.39 in North 10.0 mph 20.0 mph 71 % 0.00 in 243 W/m2
10:29 48.2 °F 39.2 °F 30.39 in North 8.0 mph 20.0 mph 71 % 0.00 in 297 W/m2
10:34 48.6 °F 39.6 °F 30.39 in NNE 9.0 mph 20.0 mph 71 % 0.00 in 237 W/m2
10:39 48.6 °F 39.2 °F 30.40 in NNE 11.0 mph 22.0 mph 70 % 0.00 in 255 W/m2
10:44 48.6 °F 39.6 °F 30.40 in NNE 9.0 mph 22.0 mph 71 % 0.00 in 243 W/m2
10:49 48.7 °F 39.8 °F 30.40 in NNE 8.0 mph 19.0 mph 71 % 0.00 in 251 W/m2
10:53 48.9 °F 39.9 °F 30.39 in North 8.0 mph 16.0 mph 71 % 0.00 in 341 W/m2
10:58 48.7 °F 39.4 °F 30.40 in North 8.0 mph 19.0 mph 70 % 0.00 in 274 W/m2
11:03 48.7 °F 39.4 °F 30.40 in NNE 9.0 mph 19.0 mph 70 % 0.00 in 297 W/m2
11:08 48.9 °F 39.6 °F 30.40 in NNE 9.0 mph 18.0 mph 70 % 0.00 in 267 W/m2
11:13 48.9 °F 39.2 °F 30.40 in NNE 9.0 mph 18.0 mph 69 % 0.00 in 304 W/m2
11:18 49.1 °F 39.4 °F 30.40 in NNE 10.0 mph 19.0 mph 69 % 0.00 in 264 W/m2
11:23 49.3 °F 39.5 °F 30.40 in North 10.0 mph 19.0 mph 69 % 0.00 in 301 W/m2
11:28 49.5 °F 40.1 °F 30.40 in NNE 7.0 mph 19.0 mph 70 % 0.00 in 294 W/m2
11:33 49.6 °F 40.3 °F 30.40 in NNE 6.0 mph 13.0 mph 70 % 0.00 in 357 W/m2
11:39 49.8 °F 40.4 °F 30.40 in NNE 7.0 mph 16.0 mph 70 % 0.00 in 239 W/m2
11:44 50.0 °F 40.6 °F 30.40 in North 7.0 mph 16.0 mph 70 % 0.00 in 313 W/m2
11:49 50.2 °F 40.8 °F 30.40 in North 8.0 mph 14.0 mph 70 % 0.00 in 325 W/m2
11:54 50.2 °F 40.8 °F 30.40 in North 8.0 mph 13.0 mph 70 % 0.00 in 294 W/m2
11:59 50.2 °F 40.4 °F 30.40 in North 8.0 mph 13.0 mph 69 % 0.00 in 343 W/m2
12:04 50.4 °F 40.9 °F 30.40 in NNE 7.0 mph 16.0 mph 70 % 0.00 in 287 W/m2
12:09 50.4 °F 40.6 °F 30.40 in NNE 8.0 mph 16.0 mph 69 % 0.00 in 271 W/m2
12:14 50.2 °F 40.4 °F 30.40 in North 9.0 mph 16.0 mph 69 % 0.00 in 357 W/m2
12:19 50.4 °F 40.6 °F 30.40 in North 9.0 mph 19.0 mph 69 % 0.00 in 334 W/m2
12:24 50.5 °F 40.4 °F 30.40 in NNE 9.0 mph 19.0 mph 68 % 0.00 in 339 W/m2
12:29 50.5 °F 40.4 °F 30.40 in NNE 8.0 mph 18.0 mph 68 % 0.00 in 299 W/m2
12:34 50.5 °F 40.0 °F 30.40 in NE 7.0 mph 18.0 mph 67 % 0.00 in 388 W/m2
12:36 50.7 °F 40.2 °F 30.40 in NE 7.0 mph 18.0 mph 67 % 0.00 in 573 W/m2
12:41 51.1 °F 40.5 °F 30.40 in NE 6.0 mph 12.0 mph 67 % 0.00 in 353 W/m2
12:46 51.3 °F 40.3 °F 30.40 in NE 6.0 mph 13.0 mph 66 % 0.00 in 243 W/m2
12:51 51.4 °F 40.8 °F 30.40 in NNE 7.0 mph 15.0 mph 67 % 0.00 in 221 W/m2
12:53 51.3 °F 40.7 °F 30.40 in NNE 7.0 mph 15.0 mph 67 % 0.00 in 204 W/m2
12:58 50.7 °F 40.2 °F 30.41 in NNE 9.0 mph 18.0 mph 67 % 0.00 in 206 W/m2
13:03 50.5 °F 40.7 °F 30.41 in NNE 9.0 mph 23.0 mph 69 % 0.00 in 190 W/m2
13:08 50.4 °F 40.6 °F 30.41 in North 9.0 mph 23.0 mph 69 % 0.00 in 207 W/m2
13:13 50.2 °F 40.4 °F 30.41 in NNE 8.0 mph 15.0 mph 69 % 0.00 in 204 W/m2
13:18 50.2 °F 40.4 °F 30.41 in NNE 8.0 mph 13.0 mph 69 % 0.00 in 248 W/m2
13:23 50.2 °F 40.4 °F 30.41 in NNE 8.0 mph 15.0 mph 69 % 0.00 in 271 W/m2
13:28 50.4 °F 39.8 °F 30.41 in NNE 8.0 mph 16.0 mph 67 % 0.00 in 299 W/m2
13:33 50.5 °F 40.0 °F 30.41 in NNE 8.0 mph 16.0 mph 67 % 0.00 in 406 W/m2
13:38 51.1 °F 40.1 °F 30.41 in NNE 7.0 mph 13.0 mph 66 % 0.00 in 512 W/m2
13:43 51.4 °F 40.5 °F 30.41 in NNE 6.0 mph 12.0 mph 66 % 0.00 in 341 W/m2
13:48 52.0 °F 40.6 °F 30.41 in NNE 7.0 mph 15.0 mph 65 % 0.00 in 323 W/m2
13:53 51.8 °F 40.8 °F 30.41 in NNE 8.0 mph 15.0 mph 66 % 0.00 in 308 W/m2
13:58 52.0 °F 41.0 °F 30.41 in NNE 7.0 mph 15.0 mph 66 % 0.00 in 253 W/m2
14:03 51.8 °F 40.8 °F 30.41 in NNE 7.0 mph 13.0 mph 66 % 0.00 in 241 W/m2
14:08 51.4 °F 40.5 °F 30.41 in NE 7.0 mph 18.0 mph 66 % 0.00 in 320 W/m2
14:13 51.4 °F 40.5 °F 30.41 in NNE 9.0 mph 18.0 mph 66 % 0.00 in 353 W/m2
14:23 51.4 °F 40.1 °F 30.41 in NE 8.0 mph 19.0 mph 65 % 0.00 in 338 W/m2
14:28 51.4 °F 40.5 °F 30.41 in NNE 8.0 mph 18.0 mph 66 % 0.00 in 260 W/m2
14:34 51.3 °F 40.7 °F 30.41 in NNE 9.0 mph 18.0 mph 67 % 0.00 in 302 W/m2
14:39 51.3 °F 40.3 °F 30.41 in NNE 8.0 mph 18.0 mph 66 % 0.00 in 323 W/m2
14:44 51.1 °F 39.7 °F 30.41 in NNE 8.0 mph 18.0 mph 65 % 0.00 in 316 W/m2
14:49 51.1 °F 40.1 °F 30.41 in NNE 8.0 mph 16.0 mph 66 % 0.00 in 283 W/m2
14:54 50.9 °F 39.9 °F 30.41 in NNE 9.0 mph 19.0 mph 66 % 0.00 in 279 W/m2
14:59 50.9 °F 39.9 °F 30.41 in NNE 9.0 mph 20.0 mph 66 % 0.00 in 441 W/m2
15:04 51.3 °F 40.7 °F 30.41 in NNE 7.0 mph 20.0 mph 67 % 0.00 in 380 W/m2
15:09 51.8 °F 40.8 °F 30.41 in NNE 6.0 mph 15.0 mph 66 % 0.00 in 332 W/m2
15:14 51.8 °F 40.8 °F 30.41 in NNE 7.0 mph 13.0 mph 66 % 0.00 in 327 W/m2
15:19 51.8 °F 40.8 °F 30.41 in NNE 8.0 mph 15.0 mph 66 % 0.00 in 371 W/m2
15:24 51.8 °F 40.8 °F 30.41 in NNE 7.0 mph 15.0 mph 66 % 0.00 in 478 W/m2
15:29 51.8 °F 40.4 °F 30.41 in NE 8.0 mph 18.0 mph 65 % 0.00 in 283 W/m2
15:34 51.4 °F 40.1 °F 30.41 in NNE 9.0 mph 18.0 mph 65 % 0.00 in 264 W/m2
15:39 51.4 °F 40.5 °F 30.41 in NNE 8.0 mph 16.0 mph 66 % 0.00 in 327 W/m2
15:44 51.4 °F 40.1 °F 30.41 in NNE 9.0 mph 16.0 mph 65 % 0.00 in 302 W/m2
15:49 51.4 °F 40.5 °F 30.41 in NNE 8.0 mph 16.0 mph 66 % 0.00 in 253 W/m2
15:54 51.4 °F 40.5 °F 30.41 in NNE 8.0 mph 15.0 mph 66 % 0.00 in 264 W/m2
15:59 51.3 °F 39.9 °F 30.41 in NNE 8.0 mph 16.0 mph 65 % 0.00 in 271 W/m2
16:04 51.3 °F 40.3 °F 30.41 in NE 7.0 mph 16.0 mph 66 % 0.00 in 241 W/m2
16:09 51.4 °F 40.5 °F 30.40 in NNE 5.0 mph 14.0 mph 66 % 0.00 in 246 W/m2
16:14 51.4 °F 40.5 °F 30.40 in NE 6.0 mph 15.0 mph 66 % 0.00 in 278 W/m2
16:19 51.4 °F 40.1 °F 30.40 in NE 6.0 mph 15.0 mph 65 % 0.00 in 213 W/m2
16:24 51.4 °F 40.5 °F 30.40 in NNE 6.0 mph 14.0 mph 66 % 0.00 in 174 W/m2
16:29 51.4 °F 40.5 °F 30.40 in NNE 6.0 mph 13.0 mph 66 % 0.00 in 149 W/m2
16:34 51.3 °F 40.3 °F 30.41 in North 7.0 mph 20.0 mph 66 % 0.00 in 169 W/m2
16:39 51.1 °F 40.5 °F 30.41 in North 6.0 mph 20.0 mph 67 % 0.00 in 167 W/m2
16:44 50.7 °F 39.4 °F 30.40 in NNE 6.0 mph 15.0 mph 65 % 0.00 in 221 W/m2
16:49 50.7 °F 39.4 °F 30.40 in NNE 7.0 mph 15.0 mph 65 % 0.00 in 211 W/m2
16:54 50.7 °F 39.8 °F 30.40 in NNE 7.0 mph 14.0 mph 66 % 0.00 in 202 W/m2
16:59 50.7 °F 39.8 °F 30.40 in NNE 8.0 mph 15.0 mph 66 % 0.00 in 216 W/m2
17:04 50.9 °F 39.9 °F 30.40 in NNE 7.0 mph 15.0 mph 66 % 0.00 in 218 W/m2
17:09 50.7 °F 39.4 °F 30.40 in NE 7.0 mph 19.0 mph 65 % 0.00 in 218 W/m2
17:14 50.7 °F 39.4 °F 30.40 in NNE 8.0 mph 19.0 mph 65 % 0.00 in 216 W/m2
17:19 50.7 °F 39.0 °F 30.40 in NNE 7.0 mph 16.0 mph 64 % 0.00 in 188 W/m2
17:25 50.9 °F 39.9 °F 30.40 in NNE 7.0 mph 19.0 mph 66 % 0.00 in 156 W/m2
17:30 50.9 °F 39.9 °F 30.40 in North 7.0 mph 19.0 mph 66 % 0.00 in 160 W/m2
17:35 50.5 °F 39.6 °F 30.40 in NNE 8.0 mph 20.0 mph 66 % 0.00 in 214 W/m2
17:40 50.2 °F 39.3 °F 30.40 in NNE 9.0 mph 20.0 mph 66 % 0.00 in 190 W/m2
17:45 50.2 °F 39.3 °F 30.40 in NNE 8.0 mph 20.0 mph 66 % 0.00 in 197 W/m2
17:50 50.2 °F 39.3 °F 30.40 in NNE 7.0 mph 15.0 mph 66 % 0.00 in 186 W/m2
17:55 50.2 °F 38.9 °F 30.39 in NNE 8.0 mph 15.0 mph 65 % 0.00 in 186 W/m2
18:00 50.2 °F 38.9 °F 30.40 in NNE 8.0 mph 13.0 mph 65 % 0.00 in 135 W/m2
18:05 50.2 °F 38.9 °F 30.39 in NE 7.0 mph 14.0 mph 65 % 0.00 in 141 W/m2
18:10 50.0 °F 39.1 °F 30.39 in NE 6.0 mph 14.0 mph 66 % 0.00 in 134 W/m2
18:15 50.0 °F 39.1 °F 30.40 in NE 3.0 mph 11.0 mph 66 % 0.00 in 167 W/m2
18:21 49.8 °F 38.5 °F 30.39 in NNE 5.0 mph 18.0 mph 65 % 0.00 in 158 W/m2
18:26 49.6 °F 38.3 °F 30.39 in NNE 8.0 mph 18.0 mph 65 % 0.00 in 127 W/m2
18:31 49.6 °F 38.3 °F 30.39 in NNE 7.0 mph 14.0 mph 65 % 0.00 in 98 W/m2
18:36 49.5 °F 38.6 °F 30.40 in NNE 8.0 mph 16.0 mph 66 % 0.00 in 100 W/m2
18:41 49.5 °F 39.0 °F 30.40 in NNE 8.0 mph 16.0 mph 67 % 0.00 in 86 W/m2
18:46 49.3 °F 38.8 °F 30.40 in NNE 7.0 mph 14.0 mph 67 % 0.00 in 93 W/m2
18:51 49.1 °F 38.6 °F 30.40 in NNE 7.0 mph 16.0 mph 67 % 0.00 in 111 W/m2
18:56 48.9 °F 38.1 °F 30.40 in NNE 7.0 mph 16.0 mph 66 % 0.00 in 90 W/m2
19:01 48.9 °F 38.1 °F 30.40 in NNE 8.0 mph 16.0 mph 66 % 0.00 in 74 W/m2
19:06 48.7 °F 38.3 °F 30.40 in NNE 8.0 mph 16.0 mph 67 % 0.00 in 70 W/m2
19:11 48.7 °F 38.6 °F 30.40 in NNE 7.0 mph 15.0 mph 68 % 0.00 in 54 W/m2
19:16 48.6 °F 38.5 °F 30.40 in NNE 8.0 mph 14.0 mph 68 % 0.00 in 49 W/m2
19:21 48.6 °F 38.8 °F 30.40 in NNE 8.0 mph 15.0 mph 69 % 0.00 in 44 W/m2
19:26 48.4 °F 38.7 °F 30.41 in NNE 8.0 mph 15.0 mph 69 % 0.00 in 40 W/m2
19:31 48.0 °F 38.3 °F 30.41 in NNE 9.0 mph 16.0 mph 69 % 0.00 in 37 W/m2
19:36 48.0 °F 38.3 °F 30.41 in NNE 6.0 mph 16.0 mph 69 % 0.00 in 35 W/m2
19:41 48.0 °F 38.3 °F 30.41 in NE 3.0 mph 10.0 mph 69 % 0.00 in 26 W/m2
19:46 48.0 °F 38.3 °F 30.41 in NE 2.0 mph 8.0 mph 69 % 0.00 in 25 W/m2
19:51 48.0 °F 38.3 °F 30.41 in NNE 2.0 mph 13.0 mph 69 % 0.00 in 21 W/m2
19:56 47.8 °F 37.8 °F 30.41 in NNE 6.0 mph 18.0 mph 68 % 0.00 in 21 W/m2
20:01 47.7 °F 37.6 °F 30.41 in NNE 8.0 mph 18.0 mph 68 % 0.00 in 19 W/m2
20:06 47.5 °F 37.8 °F 30.41 in NNE 7.0 mph 14.0 mph 69 % 0.00 in 18 W/m2
20:11 47.5 °F 37.8 °F 30.41 in NNE 4.0 mph 13.0 mph 69 % 0.00 in 14 W/m2
20:16 47.3 °F 37.6 °F 30.41 in NNE 4.0 mph 13.0 mph 69 % 0.00 in 12 W/m2
20:21 47.1 °F 37.5 °F 30.41 in NNE 6.0 mph 13.0 mph 69 % 0.00 in 12 W/m2
20:26 47.1 °F 37.5 °F 30.41 in NNE 6.0 mph 11.0 mph 69 % 0.00 in 9 W/m2
20:31 46.9 °F 37.7 °F 30.41 in NNE 5.0 mph 11.0 mph 70 % 0.00 in 5 W/m2
20:36 46.9 °F 37.7 °F 30.41 in NE 4.0 mph 11.0 mph 70 % 0.00 in 0 W/m2
20:41 46.9 °F 38.0 °F 30.41 in NNE 5.0 mph 12.0 mph 71 % 0.00 in 0 W/m2
20:46 46.8 °F 37.9 °F 30.41 in NE 5.0 mph 12.0 mph 71 % 0.00 in 0 W/m2
20:51 46.8 °F 38.2 °F 30.41 in NE 4.0 mph 11.0 mph 72 % 0.00 in 0 W/m2
20:56 46.8 °F 38.2 °F 30.42 in NE 4.0 mph 11.0 mph 72 % 0.00 in 0 W/m2
21:01 46.6 °F 38.0 °F 30.42 in NE 5.0 mph 11.0 mph 72 % 0.00 in 0 W/m2
21:06 46.6 °F 37.7 °F 30.42 in NE 4.0 mph 11.0 mph 71 % 0.00 in 0 W/m2
21:11 46.4 °F 37.5 °F 30.42 in NE 4.0 mph 12.0 mph 71 % 0.00 in 0 W/m2
21:16 46.2 °F 37.3 °F 30.42 in NE 6.0 mph 12.0 mph 71 % 0.00 in 0 W/m2
21:22 46.2 °F 37.3 °F 30.42 in NE 6.0 mph 11.0 mph 71 % 0.00 in 0 W/m2
21:27 46.2 °F 37.7 °F 30.42 in ENE 5.0 mph 11.0 mph 72 % 0.00 in 0 W/m2
21:32 46.0 °F 37.2 °F 30.42 in NE 4.0 mph 9.0 mph 71 % 0.00 in 0 W/m2
21:37 46.0 °F 37.2 °F 30.42 in NNE 5.0 mph 12.0 mph 71 % 0.00 in 0 W/m2
21:42 46.0 °F 37.5 °F 30.42 in NNE 5.0 mph 12.0 mph 72 % 0.00 in 0 W/m2
21:47 46.0 °F 37.5 °F 30.43 in NE 3.0 mph 10.0 mph 72 % 0.00 in 0 W/m2
21:52 46.0 °F 37.5 °F 30.42 in NE 4.0 mph 13.0 mph 72 % 0.00 in 0 W/m2
21:57 45.9 °F 37.7 °F 30.42 in NE 5.0 mph 13.0 mph 73 % 0.00 in 0 W/m2
22:02 45.9 °F 37.7 °F 30.42 in NE 3.0 mph 11.0 mph 73 % 0.00 in 0 W/m2
22:07 45.9 °F 37.7 °F 30.42 in ENE 3.0 mph 10.0 mph 73 % 0.00 in 0 W/m2
22:12 45.7 °F 37.5 °F 30.42 in ENE 4.0 mph 10.0 mph 73 % 0.00 in 0 W/m2
22:17 45.7 °F 37.2 °F 30.43 in ENE 4.0 mph 10.0 mph 72 % 0.00 in 0 W/m2
22:22 45.7 °F 37.2 °F 30.42 in ENE 3.0 mph 10.0 mph 72 % 0.00 in 0 W/m2
22:27 45.7 °F 37.2 °F 30.43 in ENE 3.0 mph 11.0 mph 72 % 0.00 in 0 W/m2
22:32 45.5 °F 37.0 °F 30.43 in ENE 3.0 mph 11.0 mph 72 % 0.00 in 0 W/m2
22:37 45.5 °F 37.3 °F 30.43 in NE 3.0 mph 9.0 mph 73 % 0.00 in 0 W/m2
22:42 45.5 °F 37.3 °F 30.43 in NNE 3.0 mph 9.0 mph 73 % 0.00 in 0 W/m2
22:47 45.3 °F 37.2 °F 30.42 in NE 4.0 mph 11.0 mph 73 % 0.00 in 0 W/m2
22:52 45.3 °F 37.2 °F 30.42 in NE 5.0 mph 12.0 mph 73 % 0.00 in 0 W/m2
22:57 45.3 °F 37.2 °F 30.42 in NNE 5.0 mph 12.0 mph 73 % 0.00 in 0 W/m2
23:02 45.3 °F 37.5 °F 30.42 in NE 5.0 mph 11.0 mph 74 % 0.00 in 0 W/m2
23:07 45.3 °F 37.5 °F 30.42 in NE 5.0 mph 11.0 mph 74 % 0.00 in 0 W/m2
23:12 45.1 °F 37.0 °F 30.42 in NNE 5.0 mph 11.0 mph 73 % 0.00 in 0 W/m2
23:17 45.1 °F 37.0 °F 30.42 in NNE 6.0 mph 18.0 mph 73 % 0.00 in 0 W/m2
23:22 45.1 °F 37.0 °F 30.42 in NE 6.0 mph 18.0 mph 73 % 0.00 in 0 W/m2
23:27 45.0 °F 36.8 °F 30.42 in NNE 6.0 mph 12.0 mph 73 % 0.00 in 0 W/m2
23:32 45.0 °F 36.8 °F 30.42 in NNE 4.0 mph 9.0 mph 73 % 0.00 in 0 W/m2
23:37 45.0 °F 36.8 °F 30.42 in NE 3.0 mph 9.0 mph 73 % 0.00 in 0 W/m2
23:42 45.0 °F 36.8 °F 30.42 in NNE 2.0 mph 9.0 mph 73 % 0.00 in 0 W/m2
23:47 44.8 °F 36.7 °F 30.42 in NE 2.0 mph 7.0 mph 73 % 0.00 in 0 W/m2
23:52 44.8 °F 36.7 °F 30.42 in NE 3.0 mph 9.0 mph 73 % 0.00 in 0 W/m2
23:57 44.8 °F 36.7 °F 30.42 in NE 2.0 mph 9.0 mph 73 % 0.00 in 0 W/m2
Delerius-Weather
Compliments of Weather Underground - 2.25 mb

Data updates at regular intervals.